Date,TemperatureHighF,TemperatureAvgF,TemperatureLowF,DewpointHighF,DewpointAvgF,DewpointLowF,HumidityHigh,HumidityAvg,HumidityLow,PressureMaxIn,PressureMinIn,WindSpeedMaxMPH,WindSpeedAvgMPH,GustSpeedMaxMPH,PrecipitationSumIn
2013-1-1,33,25,7,28,17,2,88,71,62,29.98,29.76,14,1,14,0.00
2013-1-2,24,11,1,19,6,-4,88,80,68,30.23,29.96,11,1,11,0.00
2013-1-3,18,6,-9,15,0,-12,88,76,55,30.26,30.01,5,0,6,0.00
2013-1-4,35,28,18,24,22,15,98,76,62,30.01,29.85,11,1,11,0.05
2013-1-5,36,30,23,26,22,16,81,71,47,30.24,29.89,17,2,17,0.09
2013-1-6,35,30,23,30,26,18,92,83,73,30.19,29.92,14,0,14,0.04
2013-1-7,35,26,14,31,21,11,93,82,71,30.39,29.99,7,1,8,0.00
2013-1-8,40,24,11,26,19,8,93,80,56,30.39,30.28,6,0,6,0.13
2013-1-9,45,32,16,35,25,14,93,77,52,30.39,29.99,14,2,14,0.13
2013-1-10,41,35,26,32,26,21,84,68,53,30.56,30.10,18,2,24,0.01
2013-1-11,40,33,22,38,27,19,94,81,51,30.55,30.11,8,1,11,0.16
2013-1-12,50,42,34,45,39,34,96,91,80,30.16,30.08,11,1,13,0.00
2013-1-13,57,44,35,51,42,34,98,93,78,30.14,29.92,11,1,13,0.00
2013-1-14,49,42,32,48,37,25,98,82,61,30.30,29.83,12,1,13,0.04
2013-1-15,34,30,26,27,25,23,90,79,67,30.35,30.23,4,0,4,0.00
2013-1-16,32,30,28,30,28,23,96,92,78,30.23,29.81,5,0,5,0.02
2013-1-17,35,28,21,31,22,8,96,79,58,30.14,29.84,12,1,12,0.08
2013-1-18,22,16,10,11,3,-2,76,57,43,30.41,30.08,11,1,12,0.00
2013-1-19,43,35,22,27,20,10,61,55,46,30.28,29.79,17,2,17,0.07
2013-1-20,46,33,25,33,10,-100,86,53,44,29.97,29.53,30,-108,30,0.03
2013-1-21,24,14,18,18,-25,-100,88,47,50,30.05,29.78,7,-334,8,0.00
2013-1-22,20,14,9,17,6,-1,89,69,49,30.11,29.78,17,2,17,0.00
2013-1-23,10,5,-1,5,-5,-9,85,62,51,30.20,30.10,13,2,15,0.00
2013-1-24,15,4,-6,-1,-5,-10,84,67,46,30.37,30.17,15,2,15,0.00
2013-1-25,14,8,0,8,-2,-6,86,64,44,30.43,30.11,7,1,7,0.00
2013-1-26,18,10,2,8,3,-2,97,73,53,30.34,30.08,8,1,9,0.00
2013-1-27,23,12,1,8,3,-2,87,69,43,30.53,30.33,7,1,8,0.00
2013-1-28,30,22,10,28,17,4,93,80,56,30.51,29.98,7,1,8,0.00
2013-1-29,40,34,28,38,32,26,95,92,84,30.15,29.99,10,1,10,0.27
2013-1-30,62,53,40,56,50,38,94,89,81,30.05,29.30,27,4,27,0.13
2013-1-31,58,39,25,56,32,16,97,78,59,29.60,28.88,21,3,21,0.66
2013-2-1,27,22,18,16,11,7,76,62,47,30.13,29.59,15,2,18,0.00
2013-2-2,26,19,10,16,8,5,87,65,44,30.24,30.04,13,1,13,0.00
2013-2-3,28,20,14,14,13,9,89,73,52,30.06,29.77,8,0,8,0.00
2013-2-4,24,19,13,17,12,6,89,72,50,29.95,29.77,15,2,15,0.00
2013-2-5,26,20,12,19,12,8,87,71,54,30.02,29.90,7,0,7,0.00
2013-2-6,33,25,16,25,15,-100,90,68,42,30.35,29.89,11,-9,12,0.00
2013-2-7,27,19,10,9,4,-100,83,57,42,30.55,30.34,12,-23,12,0.00
2013-2-8,30,26,20,22,16,-100,90,71,46,30.40,29.79,24,-6,26,0.00
2013-2-9,21,15,10,19,2,-100,92,65,43,30.35,29.82,22,-43,22,0.00
2013-2-10,28,12,-4,9,-3,-100,85,62,38,30.53,30.30,6,-48,6,0.01
2013-2-11,45,36,12,40,28,3,95,77,31,30.30,29.65,25,2,25,0.39
2013-2-12,36,34,31,31,28,25,89,78,73,29.91,29.68,16,2,17,0.00
2013-2-13,36,31,28,27,24,21,84,74,57,29.88,29.73,9,1,9,0.00
2013-2-14,39,30,20,24,22,17,89,73,54,29.97,29.72,8,1,8,0.00
2013-2-15,47,38,29,31,28,23,90,68,51,30.00,29.90,14,1,14,0.00
2013-2-16,32,28,22,28,20,8,93,72,54,30.01,29.82,7,1,8,0.04
2013-2-17,24,18,11,9,4,0,68,55,39,29.88,29.61,23,3,23,0.00
2013-2-18,25,15,6,9,1,-100,73,57,36,30.20,29.88,12,-9,12,0.00
2013-2-19,44,31,17,35,22,6,95,71,46,30.18,29.62,20,2,20,0.42
2013-2-20,33,24,23,31,10,-100,95,69,57,29.88,29.64,16,-71,19,0.03
2013-2-21,24,21,18,17,13,8,83,71,61,30.40,29.85,13,2,13,0.00
2013-2-22,36,28,17,26,20,13,88,74,60,30.44,30.26,13,1,14,0.00
2013-2-23,37,35,33,31,29,23,83,78,64,30.27,29.87,12,3,14,0.00
2013-2-24,36,33,30,34,31,28,100,92,79,29.96,29.77,12,1,12,0.09
2013-2-25,37,32,28,30,28,25,93,85,74,30.25,29.96,5,0,5,0.08
2013-2-26,41,34,25,30,27,23,93,75,62,30.32,30.06,22,2,22,0.00
2013-2-27,41,37,32,36,32,26,93,82,68,30.06,29.55,42,7,42,0.52
2013-2-28,42,37,34,37,33,30,94,87,77,29.62,29.55,7,0,7,0.06
2013-3-1,38,34,31,34,30,26,99,84,70,29.75,29.59,9,1,10,0.00
2013-3-2,35,31,27,29,26,24,92,84,75,29.75,29.70,8,1,8,0.02
2013-3-3,29,26,22,25,22,19,89,85,79,29.75,29.68,8,1,10,0.04
2013-3-4,32,27,24,23,21,18,84,77,67,29.91,29.73,13,2,13,0.01
2013-3-5,39,31,26,29,24,21,89,77,64,30.09,29.91,7,1,7,0.00
2013-3-6,39,35,27,31,28,24,92,76,64,30.13,30.04,22,2,22,0.01
2013-3-7,36,32,28,30,27,23,94,82,70,30.14,30.09,11,1,11,0.02
2013-3-8,36,30,25,30,27,22,95,88,74,30.29,30.08,11,1,11,0.10
2013-3-9,49,32,15,29,23,12,93,72,42,30.36,30.27,6,0,6,0.19
2013-3-10,56,41,23,29,24,20,92,56,25,30.37,30.19,12,2,12,0.00
2013-3-11,52,46,38,39,29,22,77,54,36,30.24,30.00,13,2,14,0.00
2013-3-12,53,49,37,50,44,35,95,86,76,30.02,29.66,24,4,24,0.63
2013-3-13,44,37,32,35,28,20,100,73,43,29.85,29.77,13,1,13,0.00
2013-3-14,32,26,22,25,15,8,78,63,51,29.90,29.81,18,2,18,0.00
2013-3-15,34,27,17,30,18,9,92,70,49,29.94,29.65,11,2,12,0.00
2013-3-16,33,27,19,25,16,11,85,63,39,29.91,29.77,9,1,9,0.02
2013-3-17,34,26,18,17,11,4,84,55,30,30.33,29.90,12,2,13,0.00
2013-3-18,38,26,13,24,7,0,88,47,20,30.46,30.12,13,2,14,0.00
2013-3-19,36,32,27,31,26,22,94,82,71,30.12,29.70,24,4,25,0.07
2013-3-20,33,27,23,25,20,18,90,75,61,29.83,29.75,12,1,12,0.09
2013-3-21,35,26,14,22,16,12,89,68,39,29.82,29.66,10,1,10,0.02
2013-3-22,34,26,18,25,18,-100,87,75,62,29.82,29.70,12,-9,12,0.01
2013-3-23,37,32,27,25,22,19,86,68,51,29.86,29.75,13,2,14,0.00
2013-3-24,40,34,30,25,24,23,76,66,53,29.90,29.77,10,1,13,0.00
2013-3-25,42,36,27,27,25,22,84,65,50,29.79,29.54,14,2,14,0.00
2013-3-26,44,36,28,30,25,21,91,68,41,29.85,29.60,9,1,9,0.00
2013-3-27,48,36,23,34,27,20,88,72,51,29.94,29.83,11,1,11,0.00
2013-3-28,47,39,34,37,33,29,93,78,61,30.10,29.93,9,1,9,0.02
2013-3-29,47,40,32,36,33,30,93,77,57,30.13,30.04,6,0,7,0.00
2013-3-30,53,41,28,35,26,20,92,60,28,30.15,30.03,12,1,12,0.00
2013-3-31,55,42,27,38,28,21,93,59,30,30.13,29.71,20,3,21,0.10
2013-4-1,55,39,28,44,32,14,96,78,43,29.85,29.53,17,2,17,0.18
2013-4-2,34,29,24,23,18,15,82,64,47,29.99,29.84,19,2,19,0.00
2013-4-3,39,31,24,23,18,13,84,59,34,30.26,29.98,17,3,17,0.00
2013-4-4,51,38,22,23,20,17,92,52,28,30.35,29.98,22,2,22,0.00
2013-4-5,53,42,32,30,24,19,68,50,31,29.98,29.71,18,2,18,0.00
2013-4-6,43,34,26,23,12,6,62,41,22,30.30,29.95,13,2,13,0.00
2013-4-7,58,45,32,39,25,11,71,48,27,30.27,29.86,31,4,31,0.03
2013-4-8,60,50,40,39,36,33,82,62,37,30.10,29.93,9,1,9,0.00
2013-4-9,59,54,49,50,45,37,88,70,45,30.01,29.81,18,3,19,0.11
2013-4-10,56,50,46,50,47,42,96,91,77,30.01,29.82,7,1,7,0.96
2013-4-11,46,40,34,45,36,30,96,87,67,30.14,29.86,9,1,9,0.08
2013-4-12,38,36,34,33,31,29,93,82,75,30.12,29.79,29,5,29,0.36
2013-4-13,49,41,35,39,36,31,94,82,64,29.96,29.80,13,1,13,0.11
2013-4-14,46,40,32,36,32,26,95,75,51,30.25,29.93,11,1,14,0.04
2013-4-15,61,45,27,38,31,24,89,60,38,30.38,30.23,11,2,11,0.00
2013-4-16,63,55,47,55,44,30,92,67,49,30.32,30.01,21,4,21,0.23
2013-4-17,60,51,41,46,37,31,91,63,34,30.33,30.11,18,2,18,0.01
2013-4-18,64,53,41,50,35,28,81,52,36,30.34,30.02,18,3,19,0.00
2013-4-19,72,63,46,62,56,44,93,78,67,30.02,29.51,24,4,24,0.78
2013-4-20,50,43,33,44,34,22,95,73,45,30.30,29.69,17,2,17,0.38
2013-4-21,49,38,28,25,20,13,76,51,25,30.66,30.30,11,1,12,0.00
2013-4-22,56,45,31,29,22,17,70,43,26,30.70,30.52,18,4,18,0.00
2013-4-23,49,42,34,39,33,26,80,71,64,30.53,30.15,16,4,19,0.00
2013-4-24,75,56,34,51,42,32,96,64,31,30.15,29.68,17,2,19,0.00
2013-4-25,62,47,40,52,34,26,88,61,35,30.27,29.70,16,2,16,0.08
2013-4-26,57,46,34,40,32,27,81,59,36,30.44,30.27,8,1,9,0.00
2013-4-27,63,49,31,38,31,21,88,55,20,30.45,30.27,8,1,9,0.00
2013-4-28,72,57,37,42,36,31,82,49,27,30.30,30.10,13,1,13,0.00
2013-4-29,64,57,51,46,38,32,67,50,40,30.21,30.14,12,1,12,0.00
2013-4-30,73,59,46,48,42,34,91,58,29,30.29,30.20,11,1,11,0.02
2013-5-1,76,61,42,41,35,27,74,40,17,30.41,30.28,14,1,14,0.00
2013-5-2,79,62,43,49,42,30,87,49,26,30.44,30.24,21,2,21,0.00
2013-5-3,69,59,48,44,36,26,63,44,27,30.46,30.29,15,3,16,0.00
2013-5-4,74,61,43,50,40,26,88,51,22,30.34,30.16,11,1,12,0.00
2013-5-5,76,48,42,42,0,-100,67,26,14,30.25,30.10,13,-248,13,0.00
2013-5-6,76,60,41,47,41,35,91,54,27,30.22,30.05,7,1,7,0.00
2013-5-7,80,64,48,58,50,44,91,62,34,30.15,30.00,8,1,8,0.00
2013-5-8,73,63,54,60,56,51,97,80,56,30.12,29.98,18,1,18,0.47
2013-5-9,68,60,54,58,54,51,95,83,60,29.98,29.83,9,1,10,0.02
2013-5-10,76,63,48,60,53,46,98,73,42,29.96,29.80,8,1,8,0.00
2013-5-11,68,63,55,63,58,53,95,86,63,29.80,29.62,13,2,14,0.22
2013-5-12,59,52,42,53,42,29,94,73,39,29.85,29.62,15,1,15,0.01
2013-5-13,48,43,40,36,32,28,82,65,51,30.08,29.85,13,1,14,0.00
2013-5-14,55,44,31,36,33,29,93,66,43,30.12,30.01,9,1,9,0.00
2013-5-15,60,50,32,52,40,28,92,71,35,30.06,29.61,17,2,17,0.05
2013-5-16,76,62,44,50,43,33,94,55,26,29.83,29.66,17,2,23,0.00
2013-5-17,66,56,44,45,41,37,83,60,36,30.21,29.83,12,1,12,0.00
2013-5-18,72,58,43,50,43,38,87,60,34,30.29,30.18,8,0,8,0.00
2013-5-19,62,56,48,55,51,45,93,85,74,30.29,30.13,9,1,9,0.07
2013-5-20,74,63,55,66,59,53,96,87,71,30.14,29.92,6,0,6,0.00
2013-5-21,86,71,57,69,64,56,98,79,49,29.95,29.74,15,1,15,1.05
2013-5-22,80,67,58,71,64,57,97,91,69,29.87,29.75,12,1,12,1.84
2013-5-23,77,69,63,69,65,61,94,85,68,29.79,29.69,12,2,13,0.10
2013-5-24,66,53,42,64,51,41,97,94,83,29.95,29.61,11,1,11,0.76
2013-5-25,44,42,40,42,40,38,100,94,89,29.95,29.87,18,1,18,0.88
2013-5-26,52,45,39,46,42,38,100,91,76,30.13,29.83,10,1,10,0.37
2013-5-27,69,53,37,47,42,36,97,69,39,30.20,30.09,9,1,11,0.00
2013-5-28,74,59,40,54,44,38,94,61,33,30.22,30.09,9,1,9,0.00
2013-5-29,78,65,57,70,62,54,97,89,71,30.10,29.91,13,0,13,1.26
2013-5-30,84,70,58,71,65,58,100,85,56,30.09,30.00,11,1,11,0.00
2013-5-31,90,77,62,72,66,60,97,72,43,30.08,29.89,10,0,10,0.00
2013-6-1,89,79,66,71,66,62,86,66,45,29.93,29.78,15,1,15,0.00
2013-6-2,88,76,67,72,68,64,96,77,55,29.80,29.62,16,1,16,1.00
2013-6-3,68,62,49,67,56,42,98,82,55,29.90,29.76,11,1,11,0.00
2013-6-4,70,56,43,52,46,40,94,70,43,30.11,29.90,13,1,13,0.00
2013-6-5,72,59,46,52,46,38,94,65,33,30.20,30.08,8,0,8,0.00
2013-6-6,71,62,51,54,49,45,95,65,43,30.15,30.02,13,1,13,0.25
2013-6-7,57,55,53,53,52,49,95,89,82,30.02,29.78,16,2,19,0.51
2013-6-8,66,58,52,61,56,51,97,92,83,30.03,29.70,6,0,7,0.41
2013-6-9,75,64,56,62,57,55,96,80,54,30.17,30.03,8,1,9,0.00
2013-6-10,70,61,54,62,57,52,94,86,61,30.18,29.87,19,1,19,0.35
2013-6-11,66,60,57,62,57,54,97,91,82,29.88,29.55,20,2,21,0.99
2013-6-12,69,60,55,57,54,52,94,83,56,29.84,29.60,16,1,16,0.05
2013-6-13,59,54,50,56,52,48,96,92,85,29.83,29.67,10,0,11,0.80
2013-6-14,74,60,50,63,53,44,98,81,35,29.85,29.68,10,0,11,0.10
2013-6-15,75,62,50,56,51,46,97,71,42,29.96,29.85,11,1,11,0.00
2013-6-16,72,61,52,62,55,45,95,80,57,29.95,29.69,11,0,11,0.02
2013-6-17,80,66,58,68,61,57,98,86,56,29.89,29.77,10,1,10,0.08
2013-6-18,65,60,52,62,56,50,98,90,77,29.95,29.87,6,0,7,0.02
2013-6-19,70,58,46,53,47,36,98,71,31,30.18,29.95,8,1,8,0.00
2013-6-20,76,61,44,58,49,42,92,67,32,30.27,30.17,7,1,8,0.00
2013-6-21,82,68,53,60,54,48,96,66,34,30.24,30.18,7,0,7,0.00
2013-6-22,84,71,57,67,62,54,95,74,49,30.19,30.04,7,0,7,0.00
2013-6-23,90,77,68,74,68,64,93,74,52,30.09,29.92,11,1,12,0.01
2013-6-24,88,74,66,75,68,63,97,85,59,29.99,29.86,10,0,12,0.47
2013-6-25,88,72,61,73,67,60,98,88,56,29.95,29.71,7,0,7,0.14
2013-6-26,76,70,66,71,68,65,99,93,77,29.79,29.72,5,0,5,0.06
2013-6-27,84,72,62,72,68,61,98,86,57,29.79,29.60,11,0,11,0.02
2013-6-28,79,71,66,70,66,63,97,87,66,29.60,29.40,12,1,12,0.75
2013-6-29,82,72,65,69,66,62,98,83,55,29.65,29.44,12,0,12,0.01
2013-6-30,84,71,63,73,67,62,98,88,61,29.88,29.65,7,0,8,0.29
2013-7-1,80,70,63,73,68,63,99,94,72,29.99,29.88,7,0,7,0.30
2013-7-2,85,75,69,76,71,68,99,90,68,30.09,29.98,8,0,8,0.03
2013-7-3,85,76,71,75,72,70,98,86,66,30.15,30.07,6,0,6,0.04
2013-7-4,90,80,72,76,72,70,95,78,58,30.17,30.03,11,1,11,0.00
2013-7-5,89,78,72,77,73,68,96,84,62,30.12,29.98,11,0,14,0.52
2013-7-6,85,75,68,73,70,65,98,84,53,30.07,29.98,7,0,7,0.00
2013-7-7,88,74,65,76,70,63,97,88,59,30.02,29.87,6,0,7,0.32
2013-7-8,82,75,71,72,70,68,98,87,65,29.99,29.89,7,0,7,0.00
2013-7-9,86,74,68,74,69,67,96,85,59,30.04,29.94,9,0,9,0.00
2013-7-10,84,75,71,75,71,68,98,89,70,29.96,29.73,10,1,10,0.90
2013-7-11,80,73,66,71,67,59,99,83,58,29.94,29.72,8,0,8,0.00
2013-7-12,82,71,59,68,62,58,96,74,51,30.15,29.94,9,0,9,0.00
2013-7-13,77,72,67,71,64,55,92,76,59,30.26,30.15,10,1,12,0.00
2013-7-14,88,76,67,75,71,66,97,84,61,30.29,30.17,6,0,7,0.00
2013-7-15,90,78,67,75,71,66,98,81,55,30.21,30.08,6,0,6,0.00
2013-7-16,89,77,66,73,69,64,95,78,55,30.19,30.09,8,0,8,0.00
2013-7-17,91,79,67,74,70,65,96,77,51,30.17,29.95,7,0,7,0.00
2013-7-18,90,80,72,77,74,71,97,81,57,30.00,29.88,9,0,9,0.00
2013-7-19,93,81,70,80,73,66,93,77,54,29.90,29.65,13,0,13,0.10
2013-7-20,84,73,64,73,68,62,97,85,63,29.82,29.65,10,0,12,0.04
2013-7-21,81,70,61,68,64,59,96,82,58,29.96,29.82,7,0,8,0.00
2013-7-22,84,73,62,70,66,60,97,79,53,29.98,29.78,8,0,8,0.05
2013-7-23,80,71,68,72,68,66,98,91,70,29.78,29.52,8,0,8,1.91
2013-7-24,76,67,57,67,61,50,98,82,57,29.99,29.57,9,1,11,0.00
2013-7-25,72,61,48,62,54,47,95,78,62,30.08,29.98,7,0,8,0.00
2013-7-26,72,63,58,62,59,56,95,85,63,30.05,29.98,7,0,7,0.00
2013-7-27,82,68,54,67,60,52,95,77,49,30.03,29.92,7,0,8,0.00
2013-7-28,76,68,63,70,65,59,97,89,72,29.96,29.89,8,0,8,0.15
2013-7-29,79,70,61,67,64,58,98,82,57,30.07,29.92,8,0,8,0.00
2013-7-30,76,65,54,64,58,53,95,80,58,30.14,30.05,9,0,9,0.00
2013-7-31,79,67,55,65,59,53,95,77,47,30.15,30.00,7,0,7,0.00
2013-8-1,77,66,59,67,62,56,95,85,65,30.02,29.81,10,1,13,0.08
2013-8-2,78,69,62,65,62,57,97,79,50,29.85,29.78,11,0,11,0.00
2013-8-3,77,66,58,63,58,53,93,76,48,29.85,29.77,13,1,13,0.00
2013-8-4,73,62,54,61,56,51,95,82,62,29.93,29.81,4,0,11,0.05
2013-8-5,73,61,49,54,50,46,97,72,41,30.05,29.94,9,1,9,0.00
2013-8-6,78,64,49,59,53,46,94,70,42,30.11,30.04,6,0,7,0.00
2013-8-7,79,69,60,63,60,56,90,74,50,30.13,30.01,9,1,11,0.00
2013-8-8,83,74,67,71,68,63,92,81,65,30.01,29.92,9,1,9,0.00
2013-8-9,77,73,70,73,70,68,97,92,84,29.93,29.73,7,0,7,0.52
2013-8-10,76,67,56,69,59,50,98,77,48,30.03,29.81,12,1,13,0.00
2013-8-11,75,63,50,59,54,48,94,76,50,30.10,29.99,8,0,8,0.00
2013-8-12,78,67,54,64,58,53,96,76,50,30.03,29.89,8,0,8,0.00
2013-8-13,66,65,63,62,61,60,96,88,84,29.89,29.77,4,0,4,1.15
2013-8-14,68,59,52,62,54,51,97,84,65,29.99,29.72,3,1,13,0.00
2013-8-15,71,59,49,58,53,47,96,81,54,30.11,29.99,10,0,10,0.00
2013-8-16,76,62,49,59,54,48,97,76,46,30.20,30.11,9,0,9,0.00
2013-8-17,78,64,50,63,56,49,97,78,50,30.29,30.20,6,0,7,0.00
2013-8-18,73,64,56,66,60,54,93,86,67,30.27,30.09,5,0,5,0.00
2013-8-19,78,66,55,66,60,54,97,83,60,30.09,29.97,7,0,7,0.00
2013-8-20,81,68,55,67,61,54,96,79,52,30.11,30.01,7,0,7,0.00
2013-8-21,84,70,59,69,63,57,96,79,52,30.16,30.00,7,0,8,0.00
2013-8-22,85,72,63,70,65,60,97,79,48,30.02,29.77,10,0,11,0.16
2013-8-23,75,66,52,66,58,49,98,80,48,30.15,29.84,9,0,9,0.00
2013-8-24,76,60,46,60,52,45,97,77,48,30.34,30.15,5,0,6,0.00
2013-8-25,79,64,49,62,56,48,96,76,44,30.38,30.15,7,0,8,0.00
2013-8-26,76,67,62,69,64,59,97,89,74,30.16,29.87,7,0,8,0.36
2013-8-27,81,71,66,72,68,65,98,92,68,29.90,29.82,6,0,7,0.03
2013-8-28,84,72,62,73,67,61,98,86,62,29.91,29.79,11,0,20,0.01
2013-8-29,78,69,61,67,64,59,96,83,65,30.02,29.91,10,1,10,0.00
2013-8-30,82,70,64,70,66,62,96,86,60,29.99,29.78,6,0,8,0.00
2013-8-31,78,71,67,74,69,65,98,95,85,29.79,29.71,10,0,12,0.77
2013-9-1,82,72,68,75,70,68,99,91,72,29.83,29.76,8,0,8,0.01
2013-9-2,81,72,65,73,69,64,98,91,72,29.78,29.63,10,0,10,0.70
2013-9-3,70,65,60,65,61,57,98,89,67,29.84,29.69,10,0,10,0.00
2013-9-4,74,64,58,62,58,54,97,80,54,29.94,29.84,11,1,11,0.00
2013-9-5,68,60,47,60,51,42,97,75,42,30.17,29.87,9,0,9,0.00
2013-9-6,65,52,41,48,43,38,92,73,44,30.26,30.12,7,0,7,0.00
2013-9-7,71,58,45,61,52,44,96,83,54,30.12,29.86,6,0,6,0.05
2013-9-8,67,58,46,59,52,43,97,82,51,30.12,29.79,13,1,13,0.00
2013-9-9,70,55,40,53,46,38,99,75,45,30.23,30.09,8,0,8,0.00
2013-9-10,78,67,57,71,64,53,98,90,74,30.10,29.97,3,0,6,0.23
2013-9-11,92,78,68,78,72,67,97,84,58,30.06,29.89,8,0,8,0.09
2013-9-12,82,69,66,75,67,65,98,95,76,29.92,29.63,10,0,11,1.18
2013-9-13,67,61,53,65,59,52,98,94,83,29.83,29.60,8,0,8,0.20
2013-9-14,58,53,48,53,50,46,96,90,78,30.10,29.83,7,0,7,0.01
2013-9-15,66,53,41,57,49,40,100,86,61,30.19,30.05,6,0,6,0.00
2013-9-16,60,53,42,55,49,38,97,87,73,30.30,30.02,8,0,8,0.06
2013-9-17,62,47,34,48,41,33,97,82,53,30.46,30.30,7,0,7,0.00
2013-9-18,70,52,39,55,46,38,97,81,48,30.36,30.16,6,0,6,0.00
2013-9-19,76,58,42,59,51,41,97,80,42,30.18,30.05,5,0,5,0.00
2013-9-20,80,62,45,65,54,44,98,78,42,30.09,29.94,7,0,7,0.00
2013-9-21,73,64,54,63,57,48,96,80,50,29.97,29.59,14,2,16,0.07
2013-9-22,64,56,48,62,51,43,97,83,62,29.90,29.56,12,1,12,0.52
2013-9-23,58,48,40,45,42,38,95,79,59,30.06,29.89,10,1,10,0.00
2013-9-24,63,47,34,50,42,33,100,85,57,30.06,29.89,9,0,9,0.00
2013-9-25,67,52,38,54,47,37,97,84,58,29.98,29.89,7,0,7,0.00
2013-9-26,64,52,43,52,45,-100,97,82,62,30.14,29.98,7,-20,7,0.00
2013-9-27,59,50,40,54,47,39,100,92,77,30.30,30.14,4,0,4,0.00
2013-9-28,71,54,39,58,50,38,98,85,58,30.37,30.24,5,0,5,0.00
2013-9-29,74,58,45,58,52,44,97,81,49,30.25,30.05,6,0,6,0.00
2013-9-30,72,57,44,56,50,43,100,80,54,30.09,29.96,6,0,6,0.00
2013-10-1,74,54,44,62,41,-100,97,77,59,30.02,29.88,8,-80,8,0.00
2013-10-2,73,41,50,64,1,-100,98,53,69,30.00,29.87,9,-360,9,0.00
2013-10-3,70,40,46,57,-1,-100,98,48,49,30.12,30.00,4,-348,6,0.00
2013-10-4,60,33,55,59,-12,-100,98,54,93,30.08,30.02,4,-439,4,0.44
2013-10-5,61,33,57,60,-11,-100,98,55,96,30.10,30.04,3,-436,3,0.10
2013-10-6,60,33,56,56,-12,-100,90,49,83,30.11,30.03,14,-427,18,0.02
2013-10-7,74,36,54,66,-12,-100,96,47,73,30.03,29.66,15,-452,15,1.07
2013-10-8,62,34,45,48,-9,-100,98,44,49,30.37,29.92,13,-362,13,0.00
2013-10-9,66,35,36,48,-9,-100,97,40,36,30.47,30.33,11,-358,11,0.00
2013-10-10,59,33,38,51,-9,-100,96,48,56,30.34,30.17,5,-377,5,0.00
2013-10-11,72,38,45,55,-8,-100,91,40,34,30.17,30.07,5,-373,5,0.00
2013-10-12,70,37,43,55,-7,-100,95,45,57,30.34,30.14,15,-382,15,0.00
2013-10-13,69,37,49,51,-8,-100,91,41,50,30.39,30.29,9,-375,10,0.00
2013-10-14,66,36,45,55,-7,-100,92,47,64,30.34,30.21,6,-387,6,0.00
2013-10-15,65,38,56,58,-4,-100,97,51,72,30.24,30.10,7,-380,7,0.00
2013-10-16,64,37,54,55,-7,-100,87,46,66,30.10,29.84,8,-391,8,0.00
2013-10-17,67,35,54,55,-12,-100,96,42,53,29.86,29.59,10,-416,10,0.03
2013-10-18,61,35,42,50,-5,-100,91,47,49,29.93,29.55,12,-341,12,0.02
2013-10-19,64,51,37,47,41,36,97,72,44,29.95,29.68,13,1,13,0.01
2013-10-20,56,49,41,48,40,36,90,74,50,30.02,29.67,17,1,17,0.04
2013-10-21,66,51,38,44,40,36,93,68,40,30.10,29.91,9,1,10,0.00
2013-10-22,54,47,35,50,43,34,96,84,70,29.91,29.73,13,1,15,0.08
2013-10-23,51,40,30,38,34,30,97,80,52,29.81,29.61,5,0,6,0.01
2013-10-24,46,40,32,37,33,30,95,77,53,29.91,29.69,12,1,12,0.01
2013-10-25,45,39,35,36,31,-100,90,76,54,30.16,29.90,12,-10,12,0.00
2013-10-26,49,44,36,36,32,28,88,65,45,30.15,29.82,12,2,15,0.00
2013-10-27,48,43,34,36,34,31,90,69,54,30.07,29.79,14,1,14,0.00
2013-10-28,53,39,29,39,31,25,94,75,47,30.36,30.06,11,1,12,0.00
2013-10-29,43,32,23,28,23,21,94,72,43,30.47,30.36,8,0,8,0.00
2013-10-30,48,38,31,40,33,23,94,83,67,30.36,30.22,5,0,5,0.03
2013-10-31,60,48,31,58,46,30,98,92,82,30.25,29.67,17,3,18,0.78
2013-11-1,67,61,50,62,54,43,94,79,62,29.68,29.38,27,4,27,0.55
2013-11-2,59,48,38,49,43,37,96,84,58,29.80,29.60,7,0,7,0.04
2013-11-3,41,35,26,38,24,11,88,65,41,30.47,29.80,11,1,11,0.01
2013-11-4,39,29,20,23,20,17,92,71,44,30.69,30.47,7,0,7,0.00
2013-11-5,50,40,30,36,29,18,81,65,55,30.69,30.47,11,1,11,0.00
2013-11-6,58,50,42,48,42,36,88,76,61,30.47,29.95,14,2,14,0.00
2013-11-7,59,49,36,53,43,24,96,81,59,29.96,29.75,17,1,17,0.41
2013-11-8,43,35,30,35,29,23,90,78,59,30.13,29.86,11,1,12,0.00
2013-11-9,42,35,25,31,27,22,90,74,61,30.24,29.93,9,0,9,0.00
2013-11-10,47,42,37,41,36,29,92,79,64,29.94,29.75,15,2,16,0.05
2013-11-11,46,41,35,33,30,27,77,63,52,30.14,29.89,13,1,13,0.00
2013-11-12,44,30,21,36,22,16,92,74,59,30.27,29.90,12,1,12,0.02
2013-11-13,32,25,17,22,16,11,87,69,42,30.37,30.17,11,1,11,0.00
2013-11-14,46,33,22,28,23,18,87,69,46,30.17,30.08,11,1,11,0.00
2013-11-15,56,39,25,29,23,17,81,57,22,30.21,30.10,7,0,7,0.00
2013-11-16,56,44,36,36,32,26,80,62,41,30.31,30.19,6,0,6,0.00
2013-11-17,60,52,37,55,48,33,92,84,72,30.25,29.69,21,3,21,0.02
2013-11-18,63,54,39,58,44,31,93,68,46,29.72,29.46,19,2,19,0.20
2013-11-19,39,34,27,31,23,17,83,64,56,30.37,29.72,15,2,17,0.00
2013-11-20,35,27,21,21,18,16,86,69,53,30.66,30.37,7,0,8,0.00
2013-11-21,44,32,17,32,23,14,96,72,37,30.66,30.38,8,0,8,0.00
2013-11-22,44,41,37,44,39,32,97,94,79,30.38,29.88,10,0,11,0.09
2013-11-23,44,33,23,42,26,15,92,75,51,30.02,29.82,14,2,14,0.01
2013-11-24,23,19,15,16,6,1,81,58,39,30.30,29.88,18,2,18,0.00
2013-11-25,30,21,9,16,10,1,80,61,49,30.45,30.24,8,1,8,0.00
2013-11-26,38,32,26,36,27,14,99,84,50,30.31,29.94,13,1,13,0.23
2013-11-27,53,39,31,50,37,29,96,94,88,29.94,29.38,18,2,18,0.74
2013-11-28,31,23,16,29,16,11,95,78,57,30.47,29.58,13,1,13,0.00
2013-11-29,28,20,14,18,14,10,91,78,57,30.77,30.46,7,0,7,0.01
2013-11-30,31,21,7,23,11,5,90,67,42,30.81,30.40,12,1,12,0.00
2013-12-1,41,35,31,32,30,24,92,82,68,30.40,30.02,5,0,5,0.01
2013-12-2,40,34,31,35,32,29,100,90,82,30.03,29.90,3,0,3,0.00
2013-12-3,40,33,28,36,31,26,96,90,82,30.01,29.91,5,0,5,0.00
2013-12-4,40,31,24,32,27,23,96,87,63,30.17,30.00,6,0,6,0.00
2013-12-5,57,49,29,53,46,27,96,87,82,30.16,29.88,19,3,19,0.01
2013-12-6,56,40,32,53,37,30,100,92,86,30.17,29.87,9,1,10,0.19
2013-12-7,35,30,26,30,25,21,94,81,60,30.48,30.12,11,1,12,0.03
2013-12-8,28,26,22,22,18,14,90,71,56,30.59,30.45,8,0,8,0.00
2013-12-9,40,33,25,35,27,16,95,81,63,30.45,29.90,17,3,18,0.02
2013-12-10,34,28,18,30,23,14,92,82,69,30.00,29.83,10,1,10,0.00
2013-12-11,27,23,18,20,16,10,90,74,62,30.21,30.01,10,1,10,0.01
2013-12-12,22,17,11,17,6,2,83,63,48,30.32,30.04,10,1,10,0.00
2013-12-13,24,19,10,20,11,2,85,71,59,30.42,29.98,11,1,11,0.00
2013-12-14,10,7,6,3,0,-1,75,72,70,30.57,30.41,3,0,4,0.00
2013-12-15,29,25,19,25,21,16,92,86,79,30.07,29.55,10,3,29,0.00
2013-12-16,24,17,6,22,9,2,92,72,55,30.23,29.74,13,1,15,0.00
2013-12-17,21,11,-2,18,6,-100,91,85,79,30.25,30.00,7,-13,7,0.00
2013-12-18,26,20,11,22,17,8,94,88,82,30.08,29.98,5,0,5,0.00
2013-12-19,41,32,24,28,24,20,92,74,52,30.11,29.97,9,0,9,0.19
2013-12-20,47,39,33,39,34,28,95,82,57,30.10,29.90,15,1,15,0.21
2013-12-21,55,45,40,49,44,38,98,95,78,29.93,29.83,6,1,7,0.55
2013-12-22,64,54,38,60,50,37,99,88,71,29.92,29.63,19,3,20,0.08
2013-12-23,50,41,33,48,40,28,100,93,84,30.15,29.90,9,1,10,0.27
2013-12-24,33,26,17,29,18,8,86,72,62,30.31,30.10,10,1,11,0.00
2013-12-25,22,14,8,11,5,1,77,67,55,30.56,30.30,11,1,14,0.00
2013-12-26,29,26,22,26,21,8,91,79,55,30.43,30.11,16,1,16,0.00
2013-12-27,31,27,22,24,21,17,83,76,63,30.29,30.21,8,1,8,0.02
2013-12-28,40,31,24,32,26,20,92,81,70,30.23,30.05,3,0,5,0.01
2013-12-29,41,33,27,36,31,25,96,92,79,30.06,29.57,5,0,5,0.85
2013-12-30,34,24,10,34,19,5,97,80,64,30.22,29.64,17,1,17,0.04
2013-12-31,21,14,8,18,9,4,90,79,64,30.22,30.03,13,1,13,0.00
2014-1-1,22,16,11,13,10,4,87,75,64,30.39,30.21,8,0,9,0.01
2014-1-2,16,6,-4,13,3,-8,88,85,82,30.36,29.91,8,1,9,0.00